Quillayute, WA
on Friday, January 11, 2013

Friday
Previous Day Next Day
Daily Summary
 ActualAverageRecord
Temperature
Mean Temperature °F 41°F  
Max Temperature 41°F 47°F 55°F (1983)
Min Temperature 25°F 36°F 21°F (1993)
Degree Days
Heating Degree Days 32 24  
Month to date heating degree days 264  
Since 1 July heating degree days 2742  
Cooling Degree Days 0 0  
Month to date cooling degree days 0  
Year to date cooling degree days 0  
Moisture
Dew Point 27°F   
Average Humidity 86    
Maximum Humidity 100    
Minimum Humidity 45    
Precipitation
Precipitation 0.00 in 0.50 in 4.59 in (2010)
Month to date precipitation 5.27  
Year to date precipitation 5.27  
Wind
Wind Speed 4 mph   
Max Wind Speed 13 mph   
Max Gust Speed 16 mph   
Visibility 5 miles   
Events Fog   

Key: T is trace of precipitation, MM is missing value
Source: NWS Daily Summary
Time(PST)TemperatureDew PointHumidity Pressure Visibility Wind DirectionWind SpeedGust SpeedPrecipitationEvents Conditions
12:06 AM 28.4°F 26.6°F 93% 30.13 in 2.5 miles Calm Calm - N/A   Partly Cloudy
12:10 AM 26.6°F 26.6°F 100% 30.13 in 1.2 miles Calm Calm - N/A   Scattered Clouds
12:17 AM 26.6°F 26.6°F 100% 30.14 in 1.0 miles Calm Calm - N/A   Mist
12:26 AM 26.6°F 26.6°F 100% 30.14 in 0.5 miles Calm Calm - N/A Fog Light Freezing Fog
12:33 AM 26.6°F 26.6°F 100% 30.14 in 1.8 miles Calm Calm - N/A   Partly Cloudy
12:35 AM 26.6°F 26.6°F 100% 30.14 in 4.0 miles ENE 3.5 mph - N/A   Partly Cloudy
12:53 AM 26.1°F 25.0°F 96% 30.15 in 6.0 miles Calm Calm - N/A   Clear
1:53 AM 28.0°F 27.0°F 96% 30.16 in 6.0 miles NE 3.5 mph - N/A   Clear
2:53 AM 27.0°F 26.1°F 96% 30.17 in 6.0 miles Calm Calm - N/A   Clear
3:53 AM 28.0°F 27.0°F 96% 30.18 in 6.0 miles North 5.8 mph - N/A   Clear
4:53 AM 27.0°F 27.0°F 100% 30.18 in 6.0 miles Calm Calm - N/A   Clear
5:53 AM 26.1°F 25.0°F 96% 30.19 in 6.0 miles Calm Calm - N/A   Clear
6:53 AM 27.0°F 26.1°F 96% 30.22 in 6.0 miles NNW 4.6 mph - N/A   Clear
7:53 AM 28.0°F 27.0°F 96% 30.25 in 6.0 miles North 5.8 mph - N/A   Clear
8:53 AM 30.0°F 28.0°F 92% 30.27 in 5.0 miles North 5.8 mph - N/A   Clear
9:53 AM 33.1°F 28.9°F 85% 30.29 in 5.0 miles Variable 3.5 mph - N/A   Clear
10:53 AM 37.0°F 28.0°F 70% 30.30 in 5.0 miles North 5.8 mph - N/A   Haze
11:53 AM 39.2°F 23.0°F 52% 30.28 in 5.0 miles NNE 8.1 mph - N/A   Haze
12:53 PM 39.9°F 21.9°F 49% 30.28 in 5.0 miles ENE 10.4 mph - N/A   Haze
1:53 PM 41.0°F 21.0°F 45% 30.28 in 5.0 miles NE 6.9 mph - N/A   Haze
2:53 PM 39.9°F 21.0°F 47% 30.29 in 5.0 miles Calm Calm - N/A   Haze
3:53 PM 35.1°F 28.9°F 78% 30.30 in 5.0 miles Calm Calm - N/A   Haze
4:53 PM 32.0°F 28.9°F 88% 30.30 in 5.0 miles ENE 3.5 mph - N/A   Clear
5:53 PM 30.9°F 28.9°F 92% 30.31 in 6.0 miles Calm Calm - N/A   Clear
6:53 PM 30.9°F 28.0°F 89% 30.31 in 6.0 miles ENE 3.5 mph - N/A   Mostly Cloudy
7:38 PM 30.2°F 26.6°F 86% 30.30 in 6.0 miles ENE 5.8 mph - N/A   Haze
7:53 PM 30.9°F 27.0°F 85% 30.30 in 6.0 miles East 5.8 mph - N/A   Partly Cloudy
8:53 PM 30.0°F 27.0°F 88% 30.30 in 6.0 miles ENE 4.6 mph - N/A   Clear
9:53 PM 30.0°F 27.0°F 88% 30.30 in 6.0 miles ENE 4.6 mph - N/A   Clear
10:53 PM 30.0°F 27.0°F 88% 30.30 in 6.0 miles East 4.6 mph - N/A   Clear
11:53 PM 28.9°F 27.0°F 92% 30.31 in 6.0 miles ENE 3.5 mph - N/A   Partly Cloudy
Moon Phase
Jan. 11 Jan. 18 Jan. 26 Feb. 03 Feb. 10
Sunrise:08:05 AM (PST) Moon Rise:07:39 AM (PST)1/11
Sunset:04:48 PM (PST) Moon Set:05:17 PM (PST)1/11

Copyright © 2014 The Weather Underground, Inc.